sat.trackr.live / text

‹ back to catalog

STARLINK-1434

NORAD 45712 · 2020-035BH

PAYLOAD ACTIVE UNKNOWN

§ Identity

Operator
Country
US
Launch date
2020-06-04
Launch site
AFETR
Launch vehicle
Mass (kg)
RCS (m²)

Purposes: comms

External: N2YO · Heavens-Above · Gunter

§ Orbital elements

Epoch: 2026-05-25T01:17:15.957888Z

Period
93.93 min
Inclination
53.0526°
Eccentricity
0.0003364
Mean motion
15.33047698 rev/d
Perigee alt
464.4 km
Apogee alt
469.0 km
Semi-major
6,844.9 km
B*
1.0366e-3
RAAN
24.4639°
Arg perigee
65.9038°
Mean anomaly
294.2314°
Rev number
33,108

§ Raw data

STARLINK-14341 45712U 20035BH  26145.05365692  .00033342  00000+0  10366-2 0  99952 45712  53.0526  24.4639 0003364  65.9038 294.2314 15.33047698331083

JSON: /api/v1/satellites/45712 · /tle

For live sub-satellite position, see the globe view (requires WebGL).

§ Visibility from observer

Set your observer location to see the next 7 days of passes ≥ 10°. The values pass through the URL so the page stays shareable.

No JS? Fill the form by hand. The geolocation button needs JavaScript.